| DS18B20 | SHTC3 | ||||||
|---|---|---|---|---|---|---|---|
| ID | Date d/m/Y & Time | data1 สูง | data2 ต่ำ | data3 นอก | temp pcb | hum pcb | Time |
| 8771 | 04/04/2026 16:17:17 | 31.9  | 31.4  | 32.0  | 32.0  | 67.4  | 16:17 |
| 8770 | 04/04/2026 16:12:34 | 31.9  | 31.4  | 32.1  | 31.9  | 67.2  | 16:12 |
| 8769 | 04/04/2026 16:07:50 | 32.0  | 31.4  | 32.4  | 31.8  | 67.2  | 16:07 |
| 8768 | 04/04/2026 16:03:08 | 31.9  | 31.4  | 32.5  | 31.8  | 67.2  | 16:03 |
| 8767 | 04/04/2026 15:58:26 | 31.9  | 31.4  | 32.7  | 31.8  | 67.2  | 15:58 |
| 8766 | 04/04/2026 15:53:45 | 32.0  | 31.4  | 32.6  | 31.9  | 67.0  | 15:53 |
| 8765 | 04/04/2026 15:49:03 | 32.1  | 31.4  | 32.7  | 31.9  | 67.0  | 15:49 |
| 8764 | 04/04/2026 15:44:21 | 32.1  | 31.4  | 32.9  | 31.9  | 67.1  | 15:44 |
| 8763 | 04/04/2026 15:39:40 | 32.1  | 31.4  | 32.8  | 32.0  | 67.5  | 15:39 |
| 8762 | 04/04/2026 15:34:58 | 32.2  | 31.4  | 32.7  | 31.8  | 67.3  | 15:34 |
| 8761 | 04/04/2026 15:30:16 | 32.2  | 31.4  | 32.8  | 31.8  | 67.3  | 15:30 |
| 8760 | 04/04/2026 15:25:34 | 32.2  | 31.3  | 32.8  | 31.9  | 67.2  | 15:25 |
| 8759 | 04/04/2026 15:20:52 | 32.3  | 31.3  | 32.9  | 31.8  | 67.2  | 15:20 |
| 8758 | 04/04/2026 15:16:08 | 32.3  | 31.3  | 32.9  | 32.0  | 67.2  | 15:16 |
| 8757 | 04/04/2026 15:11:27 | 32.4  | 31.3  | 33.1  | 32.0  | 67.2  | 15:11 |
| 8756 | 04/04/2026 15:06:44 | 32.4  | 31.2  | 33.0  | 32.0  | 67.2  | 15:06 |
| 8755 | 04/04/2026 15:02:03 | 32.4  | 31.2  | 33.1  | 32.0  | 67.3  | 15:02 |
| 8754 | 04/04/2026 14:57:21 | 32.4  | 31.2  | 33.0  | 31.7  | 67.1  | 14:57 |
| 8753 | 04/04/2026 14:52:39 | 32.4  | 31.2  | 33.2  | 32.0  | 67.3  | 14:52 |
| 8752 | 04/04/2026 14:47:57 | 32.4  | 31.2  | 33.0  | 32.0  | 67.4  | 14:47 |
| 8751 | 04/04/2026 14:43:15 | 32.3  | 31.2  | 33.0  | 32.0  | 67.4  | 14:43 |
| 8750 | 04/04/2026 14:38:31 | 32.3  | 31.2  | 33.0  | 31.8  | 67.5  | 14:38 |
| 8749 | 04/04/2026 14:33:49 | 32.2  | 31.1  | 33.4  | 31.8  | 67.6  | 14:33 |
| 8748 | 04/04/2026 14:29:07 | 32.2  | 31.1  | 33.4  | 31.7  | 67.8  | 14:29 |